THOR ABLESTAR DEB, 407

Orbit data source: Space-Track

THOR ABLESTAR DEB, 407 is space debris in LEO originally from a launch on Thu, 29 Jun 1961 UTC launched from the Air Force Eastern Test Range (AFETR). Debris objects in space refer to the collection of defunct objects orbiting the Earth. Examples of debris include non-operational satellites, rocket bodies, and fragments generated from explosions, collisions, or faulty payload assembly.

Loading next visibility...
Identifier
407, 1961-015EG
Orbit
LEO
Last TLE update
10 hours ago
Origin
Manufacturer
Unknown
Mission
Spacecraft
Bus & Motor
Unknown
Mass
Unknown
Launch date (UTC)
1961-06-29 (64 years ago)
Launch vehicle
Unknown
Launch site
Air Force Eastern Test Range (AFETR)
Object type
Payload
Rocket body
Debris
Shape & HBR
Unknown
Radar Cross Section
Medium (>0.1 m² and <1 m²)

Expand to show TLE details & history

TLE from 10 hours ago
0 THOR ABLESTAR DEB
1 00407U 61015EG  25188.89112967  .00049214  00000-0  19130-2 0  9997
2 00407  66.2977   7.4208 0017616 198.2178 161.8336 15.25630836281185
Epoch: 2025-07-07T21:23Z
TLE epoch observation values (Epoch: 2025-07-07T21:23:13.603Z)
Latitude
-0.00005°
Longitude
120.52013°
Altitude
502.556 km
Speed
7.607 km/s
True Right ascension
00h 29m 40s
True Declination
0° 00' 00"
Sunlit
Object was in daylight at epoch
Visualization orbit readout
Latitude
60.15437°
Longitude
168.81168°
Altitude
505.355 km
Speed
7.614 km/s
Apparent Right ascension
05h 48m 14s
Apparent Declination
14° 03' 31"
Sunlit
Object is in daylight
Visualization observer readout
Local Sidereal Time
19:13:47
Azimuth
24.791° NE
Elevation
-32.473°
Doppler factor
1
Orbital elements
Apogee altitude
499.338 km
Perigee altitude
475.15 km
Semi-major axis
6,865.381 km
Eccentricity
0.00176
Inclination
66.2977°
RAAN
7.4208°
Arg. of periapsis
198.2178°
True anomaly
Unknown
Mean anomaly
161.8336°
Eccentric anomaly
Unknown
Mean motion
3.81545 °/min
Orbital period
94.35 mins
BSTAR
0.001913
Loading maneuver chart data...
Loading SW <> Apogee altitude chart data...

THOR ABLESTAR DEB Visibility forecast

Observer location: undefined°, undefined°

Span
Click to sort rows by Start time (UTC) header in descending order
Start Az.
Max El. time (UTC)
Max El. Az.
Max El.
End time (UTC)
End Az.
6 mins2025-07-08 13:15:17.576Z186.886° SSW2025-07-08 13:18:17.576Z118.975° SE36.182°2025-07-08 13:21:17.576Z44.676° NE
4 mins2025-07-08 23:08:17.576Z295.437° NW2025-07-08 23:09:17.576Z266.442° W31.536°2025-07-08 23:12:17.576Z181.464° SSW
|